Home > Weather > Abu Dhabi > Past weeks

Flag for United Arab Emirates Past Weather in Abu Dhabi, Abu Dhabi, United Arab Emirates — Yesterday and Last 2 Weeks

Now
111 °F

Passing clouds.


Feels Like: 108 °F
Forecast: 94 / 107 °F
Wind: 6 mph from Southwest

Location: Abu Dhabi Bateen Airport

Current Time: Aug 24, 2016 at 2:40:45 PM

Latest Report: Aug 24, 2016 at 2:00 PM


Visibility: N/A

Pressure: 29.50 "Hg

Humidity: 13%

Dew Point: 50 °F

Location of Abu DhabiLocation

Past Weather in Abu Dhabi — Graph

°F

Abu Dhabi Temperature Yesterday

Maximum temperature yesterday: 115 °F (at 2:00 PM)
Minimum temperature yesterday: 88 °F (at 3:00 AM)
Average temperature yesterday: 97 °F

High & Low Weather Summary for the Past Weeks

 TemperatureHumidityPressure
High118 °F (Aug 15, 2:00 PM)89% (Aug 16, 2:00 AM)29.62 "Hg (Aug 16, 2:00 AM)
Low86 °F (Aug 21, 7:00 AM)8% (Aug 15, 2:00 PM)29.36 "Hg (Aug 17, 4:00 PM)
Average97 °F51%29.50 "Hg
* Reported Aug 9 1:00 PM — Aug 24 1:00 PM, Abu Dhabi, Weather by CustomWeather, © 2016

Note: Actual official high and low records may vary slightly from our data, if they occured in-between our weather recording intervals... More about our weather records

Advertising

Abu Dhabi Weather History for the Previous 24 Hours

Scroll right to see more
 ConditionsComfort  
Time TempWeatherWind HumidityBarometerVisibility
1:00 PM
Wed, Aug 24
109 °FPassing clouds.6 mph16%29.53 "HgN/A
12:00 PM108 °FPassing clouds.3 mph22%29.56 "HgN/A
11:00 AM102 °FPassing clouds.3 mph31%29.56 "HgN/A
10:00 AM99 °FPassing clouds.5 mph37%29.59 "HgN/A
9:00 AM93 °FPassing clouds.3 mph56%29.59 "HgN/A
8:00 AM91 °FSunny.1 mph63%29.59 "Hg10 mi
7:00 AM88 °FSunny.2 mph70%29.56 "Hg10 mi
6:00 AM88 °FPassing clouds.3 mph70%29.53 "HgN/A
5:00 AM88 °FPassing clouds.5 mph70%29.53 "HgN/A
4:00 AM88 °FPassing clouds.3 mph70%29.53 "HgN/A
3:00 AM91 °FClear.2 mph63%29.53 "Hg10 mi
2:00 AM91 °FClear.2 mph63%29.53 "Hg10 mi
1:00 AM91 °FClear.5 mph63%29.53 "Hg10 mi
12:00 AM93 °FPassing clouds.5 mph63%29.56 "HgN/A
11:00 PM
Tue, Aug 23
93 °FClear.5 mph56%29.56 "Hg10 mi
10:00 PM93 °FClear.7 mph67%29.59 "Hg10 mi
9:00 PM93 °FClear.8 mph63%29.56 "Hg6 mi
8:00 PM93 °FClear.12 mph67%29.56 "Hg6 mi
7:00 PM95 °FClear.13 mph60%29.53 "Hg10 mi
6:00 PM97 °FSunny.15 mph56%29.53 "Hg10 mi
5:00 PM99 °FPassing clouds.16 mph53%29.53 "Hg5 mi
4:00 PM102 °FPassing clouds.14 mph48%29.53 "Hg5 mi
3:00 PM115 °FSunny.6 mph8%29.53 "Hg10 mi
2:00 PM115 °FPassing clouds.6 mph8%29.53 "HgN/A
Weather by CustomWeather, © 2016

See weather overviewHow to use our weather pages